Вернуться в каталог

CZ-6A DEB

АктивенSSO
NORAD 54505·DEBRIS·🇨🇳 China

Запущен Nov 11, 2022 с Taiyuan Satellite Launch Center

Loading…

Ближайшие Пролёты (ближайшие 24 часа)

TLE

СвежийSource: Space-Track

Эпоха: Sep 14, 2026, 04:12 UTC

1 54505U 22151JH  26257.17508936  .00002524  00000-0  78793-3 0  9991
2 54505  98.9180 334.0765 0070155 181.3112 178.7902 14.40341597200597

Отслеживайте CZ-6A DEB в реальном времени с AllMySat

Download on the App Store